|
NORAD ID: 26791 Int'l Code: 1992-019D
Perigee: 218.4 km
Apogee: 10,038.7 km
Inclination: 34.7 °
Period: 204.5 minutes
Semi major axis: 11499 km
Launch date: April 10, 1992
Source: United States (US)
Note: This is SATELLITE DEBRIS
Two Line Element Set (TLE):
1 26791U 92019D 13142.28518777 .00031233 00000-0 55910-3 0 9841
2 26791 034.6654 206.9437 4269821 013.3792 018.9105 07.04014690323725
Source:
NASA's NSSDC Master Catalog entry for DELTA 2 DEB
|